Location: Carrières
(48.9495°N, 2.0407°E)
Time: 07:38:10
(UTC+00:00)

Cosmos 2228 - Pass Details

Date: 28 January 2023
Orbit: 585 x 612 km, 82.5° (Epoch: 22 March)

Event Time Altitude Azimuth Distance (km) Brightness Sun altitude
Rises 17:21:10 0° 2° (N) 2,835 6.2 -6.7°
Reaches altitude 10° 17:23:56 10° 20° (NNE) 1,925 5.2 -7.1°
Maximum altitude 17:27:00 19° 67° (ENE) 1,419 4.3 -7.6°
Drops below altitude 10° 17:30:03 10° 113° (ESE) 1,909 5.1 -8.1°
Sets 17:32:46 0° 132° (SE) 2,803 6.1 -8.5°
